Regional Weather Roundup
Issued by NWS Bismarck, ND

Home | Current Version | Previous Version | Text Only | Print | Product List | Glossary On
Versions: 1 2 3 4 5 6 7 8 9 10 11 12 13 14 15 16 17 18 19 20 21 22 23 24 25 26 27 28 29 30 31 32 33 34 35 36 37 38 39 40 41 42 43 44 45 46 47 48 49 50
000
ASUS43 KBIS 141402
RWRBIS

NWR BROADCAST TEXT
NATIONAL WEATHER SERVICE BISMARCK ND
800 AM CST SUN FEB 14 2016

NOTE: "FAIR" INDICATES FEW OR NO CLOUDS BELOW 12,000 FEET WITH NO
SIGNIFICANT WEATHER AND/OR OBSTRUCTIONS TO VISIBILITY.


CITY           SKY/WX    TMP DP  RH WIND       PRES   REMARKS
WILLISTON      PTCLDY    20  18  92 SW6       29.74S WCI  12
MINOT          CLOUDY    27  21  78 W9        29.69F WCI  18
MINOT AFB      CLOUDY    26  25  99 CALM      29.69F
BISMARCK       CLOUDY    29  25  85 CALM      29.75F
DICKINSON      CLOUDY    22  20  92 W10       29.70F WCI  11
GARRISON         N/A     28  25  88 NW12      29.70F WCI  18
HETTINGER ARPT CLOUDY    25  22  88 W8        29.74F WCI  16
JAMESTOWN      CLOUDY    14  11  87 S14       29.74F WCI  -1
CARRINGTON     FOG       18  18 100 S12       29.73F VSB 1   WCI   5
OAKES          CLOUDY    14  14 100 S12       29.82F FOG     WCI   0
$$

CITY           SKY/WX    TMP DP  RH WIND       PRES   REMARKS
GRAND FORKS    LGT SNOW  14   9  80 S21G29    29.84F WCI  -4
GRAND FORKS AF LGT SNOW  13   9  83 S18       29.81F WCI  -4
DEVILS LAKE    FLURRIES  14  11  87 S12       29.71F WCI   0
FARGO          LGT SNOW  14   9  80 S22G28    29.88F VSB 3/4 WCI  -4
GRAFTON        LGT SNOW  14  10  85 S22G28    29.84F VSB 1   WCI  -4
GWINNER        CLOUDY    18  14  86 S10       29.84F WCI   6
$$

CITY           SKY/WX    TMP DP  RH WIND       PRES   REMARKS
ABERDEEN       CLOUDY    16  11  80 S13       29.83S HAZE    WCI   2
MOBRIDGE       CLOUDY    24  22  91 SE3       29.75S
BUFFALO          N/A     31  24  75 W12       29.71S
RAPID CITY     CLOUDY    32  24  72 CALM      29.82F
GLASGOW        CLOUDY    32  24  72 W6        29.73F
SIDNEY         CLOUDY    27  23  86 S3        29.74F
WOLF POINT     CLOUDY    31  26  82 SW9       29.75S
GLENDIVE       CLOUDY    34  27  75 W12       29.76F
MILES CITY     CLOUDY    35  31  85 SW17G26   29.80F
BAKER          CLOUDY    29  23  78 W7        29.77F
$$

CITY           SKY/WX    TMP DP  RH WIND       PRES   REMARKS
BILLINGS       CLOUDY    37  28  70 SW10      29.82F
GREAT FALLS    CLEAR     38  22  52 W13       29.80R
$$




USA.gov is the U.S. government's official web portal to all federal, state and local government web resources and services.